7 * 24
多渠道服务支持
IRIDIUM 17 是 IRIDIUM 卫星通信系统的一部分,由 Iridium LLC 运营,用于提供全球范围的移动语音和数据通信服务。该卫星属于 L 波段,运行在低地球轨道(LEO),支持手持设备在航空、航海和偏远地区进行通信。IRIDIUM 系统由 66 颗主卫星组成,提供无缝覆盖和抗干扰能力,广泛应用于应急响应、军事和商业领域。IRIDIUM 17 在系统中承担通信中继功能,确保全球用户可随时接入网络。
美国
(US)
| 数据来源 | 国际轨道数据 |
| 星历时间: | 2025-10-28T22:04:10+0800 17小时前 查看轨道信息 |
| 半长轴: | 7143.37km |
| 偏心率: | 0.0001182 |
| 轨道倾角: | 86.401° |
| 近地点辐角 | 34.027° |
| 升交点赤经 | 178.707° |
| 平近点角 | 326.101° |
| 近地点: | 764.39km |
| 远地点: | 766.08km |
| 周期: | 100.142分钟 |
| 每日圈数: | 14.379644 |